Regional Weather Roundup
Issued by NWS Sterling, VA

Home | Current Version | Previous Version | Graphics & Text | Print | Product List | Glossary On
Versions: 1 2 3 4 5 6 7 8 9 10 11 12 13 14 15 16 17 18 19 20 21 22 23 24 25 26 27 28 29 30 31 32 33 34 35 36 37 38 39 40 41 42 43 44 45 46 47 48 49 50
000
ASUS41 KLWX 030610
RWRLWX

REGIONAL WEATHER ROUNDUP
NATIONAL WEATHER SERVICE BALTIMORE MD/WASHINGTON DC
100 AM EST TUE MAR 03 2015

Note: "FAIR" indicates few or no clouds below 12,000 feet
with no significant weather and/or obstructions to visibility.
 TC=TEMPERATURE CELSIUS

 * =Non NWS site. Station does not report precipitation (e.g. rain,
    snow, etc.), thunder, or fog.

DCZ001-MDZ009-015-VAZ040>042-051-053>054-030700-
WASHINGTON METRO

CITY           SKY/WX    TMP DP  RH WIND       PRES   REMARKS
WASHINGTON NAT FAIR      33  15  47 N7        30.43F
DULLES         MOCLDY    28  14  55 N5        30.41F
ANDREWS AFB    FAIR      26  16  64 N8        30.40S WCI  18
FT BELVOIR     FAIR      26  18  71 N2        30.42S
QUANTICO       FAIR      32  16  51 NE12      30.42F WCI  23
COLLEGE PARK*  FAIR      25  21  86 CALM      30.43S
LEESBURG*      FAIR      28  19  69 N6        30.41F
MANASSAS*      FAIR      28  19  69 NE6       30.41F
GAITHERSBURG*  FAIR      23  12  63 CALM      30.43F

$$

MDZ006>007-011-014-030700-
BALTIMORE METRO

CITY           SKY/WX    TMP DP  RH WIND       PRES   REMARKS
BWI AIRPORT    FAIR      24  15  68 W5        30.42S
MD SCIENCE CTR   N/A      1  52 100 MISG      30.42S
MARTIN STATE   FAIR      30  18  59 W3        30.44S
ANNAPOLIS      FAIR      29  16  58 NW3       30.43S
FORT MEADE*    FAIR      23  18  80 CALM      30.45S

$$

MDZ012-015-019>023-030700-
MARYLAND EASTERN SHORE

CITY           SKY/WX    TMP DP  RH WIND       PRES   REMARKS
OCEAN CITY     FAIR      29  17  61 N8        30.41S WCI  21
SALISBURY      FAIR      31  18  58 N5        30.42R
BAY BRIDGE AP*   N/A     30  18  59 NW3       30.43S
CAMBRIDGE*     FAIR      32  18  55 N7        30.41S
EASTON*        FAIR      30  19  63 N3        30.46R

$$

MDZ017>025-030700-
SOUTHERN MARYLAND

CITY           SKY/WX    TMP DP  RH WIND       PRES   REMARKS
PATUXENT RIVER FAIR      32  15  49 N13       30.40F WCI  22
ST INIGOES     NOT AVBL
LEONARDTOWN*   FAIR      32  14  47 NW3       30.42R

$$

MDZ003>005-030700-
NORTH CENTRAL MARYLAND

CITY           SKY/WX    TMP DP  RH WIND       PRES   REMARKS
FREDERICK*     FAIR      27  12  54 CALM      30.45S
HAGERSTOWN APT FAIR      25  13  60 NW3       30.39F
WESTMINSTER*   FAIR      25  14  63 NW3       30.38S

$$

MDZ501>502-030700-
WESTERN MARYLAND

CITY           SKY/WX    TMP DP  RH WIND       PRES   REMARKS
OAKLAND*       FAIR      16  16 100 S5        30.23F
CUMBERLAND*    NOT AVBL

$$

VAZ025>031-030700-
SHENANDOAH VALLEY

CITY           SKY/WX    TMP DP  RH WIND       PRES   REMARKS
WINCHESTER*    FAIR      28  12  50 CALM      30.38F
FRONT ROYAL*   FAIR      28  16  59 CALM      30.38S
LURAY*         FAIR      30  21  69 CALM      30.37S
NEW MARKET*    FAIR      23  16  74 N3        30.34F
STAUNTON*      FAIR      26  17  68 CALM      30.36F
WAYNESBORO*    FAIR      28  17  62 CALM      30.33F

$$

WVZ021-048>050-054>055-030700-
EASTERN WEST VIRGINIA PANHANDLE

CITY           SKY/WX    TMP DP  RH WIND       PRES   REMARKS
MARTINSBURG    FAIR      24  14  65 E3        30.40F
PETERSBURG*    NOT AVBL

$$

VAZ036>039-050-030700-
CENTRAL FOOTHILLS

CITY           SKY/WX    TMP DP  RH WIND       PRES   REMARKS
CHARLOTTESVILL FAIR      32  14  47 CALM      30.37S
CULPEPER*      FAIR      30  18  59 CALM      30.40R
ORANGE*        FAIR      30  19  64 CALM      30.40R
GORDONSVILLE*  FAIR      25  19  78 CALM      30.38S
WARRENTON*     FAIR      29  21  73 NE3       30.39F

$$

VAZ055>057-030700-
NORTH AND CENTRAL PIEDMONT

CITY           SKY/WX    TMP DP  RH WIND       PRES   REMARKS
FREDERICKSBRG* FAIR      32  18  55 NE3       30.41S
STAFFORD*      FAIR      30  13  49 CALM      30.45S

$$

NCZ024-NYZ072-PAZ021-071-VAZ022-071-030700-
OTHER REGIONAL OBSERVATIONS

CITY           SKY/WX    TMP DP  RH WIND       PRES   REMARKS
NEW YORK CITY  FAIR      27   9  46 VRB3      30.39S
PHILADELPHIA   FAIR      28  15  58 NW3       30.41R
PITTSBURGH     MOCLDY    16  12  84 CALM      30.36S
ROANOKE        FAIR      36  16  44 NE5       30.36F
RICHMOND       CLOUDY    32  18  56 NE7       30.40F
RALEIGH        CLOUDY    41  35  79 E9        30.35S

$$

ANZ530>537-030700-
MARINE OBSERVATIONS

STATION/POSITION TIME  TEMP    WIND        PRES
                       AIR SEA DIR/SP/G
                 (UTC) (F)     (DEG/KT/KT) (MB)
THOMAS PT LIGHT  0600   31 31  320/  9/ 10 1031.6R
BALT KEY BRIDGE  0500                      1030.3F
COVE POINT       0500                      1029.8F
LEWISETTA        0500                      1029.6R
SOLOMONS ISLAND  0512      33                N/A

$$




USA.gov is the U.S. government's official web portal to all federal, state and local government web resources and services.